FW1957 Weather Reports


Display with metric or nautical units.
time (UTC)temp
F
wind
direction
speed
MPH
gust
MPH
rain 1hr
in
rain 24hr
in
rain mn
in
humidity
%
barometer
mb
20260901191706 72 294 2.0 4.0 0.00 0.47 0.00 57 1019.0
20260901191205 72 280 2.0 7.0 0.00 0.47 0.00 58 1019.0
20260901190718 72 253 3.0 7.0 0.00 0.47 0.00 59 1019.0
20260901190215 72 250 3.0 7.0 0.00 0.47 0.00 59 1019.0
20260901185716 73 244 2.0 3.0 0.00 0.47 0.00 58 1019.0
20260901185219 73 254 2.0 4.0 0.00 0.47 0.00 56 1018.9
20260901184713 73 255 2.0 4.0 0.00 0.47 0.00 55 1018.9
20260901184210 73 265 2.0 4.0 0.00 0.47 0.00 53 1018.8
20260901183218 74 317 3.0 5.0 0.00 0.47 0.00 48 1018.7
20260901182713 74 290 3.0 6.0 0.00 0.47 0.00 48 1018.6
20260901182208 74 340 3.0 6.0 0.00 0.47 0.00 48 1018.6
20260901181717 74 339 3.0 6.0 0.00 0.47 0.00 48 1018.6
20260901181220 74 348 2.0 6.0 0.00 0.47 0.00 47 1018.5
20260901180711 74 331 3.0 6.0 0.00 0.47 0.00 47 1018.4
20260901180205 75 337 3.0 6.0 0.00 0.47 0.00 46 1018.4
20260901175709 75 326 3.0 6.0 0.00 0.47 0.00 46 1018.3
20260901175214 75 342 3.0 9.0 0.00 0.47 0.00 46 1018.2
20260901174712 75 312 4.0 9.0 0.00 0.47 0.00 45 1018.1
20260901174212 76 348 5.0 10.0 0.00 0.47 0.00 45 1018.0
20260901173718 76 0 5.0 12.0 0.00 0.47 0.00 44 1018.0
20260901173207 76 355 5.0 12.0 0.00 0.47 0.00 44 1018.0
20260901172218 76 326 5.0 11.0 0.00 0.47 0.00 44 1017.9
20260901171714 76 355 6.0 14.0 0.00 0.47 0.00 44 1017.9
20260901170707 76 341 8.0 16.0 0.00 0.47 0.00 43 1017.9
20260901170212 77 332 8.0 16.0 0.00 0.47 0.00 43 1017.8
20260901165206 77 326 7.0 12.0 0.00 0.47 0.00 43 1017.8
20260901164716 77 320 6.0 14.0 0.00 0.47 0.00 43 1017.8
20260901164218 78 355 7.0 14.0 0.00 0.47 0.00 43 1017.8
20260901163717 78 343 8.0 16.0 0.00 0.47 0.00 43 1017.8
20260901163208 78 310 8.0 17.0 0.00 0.47 0.00 43 1017.7
20260901162711 78 310 10.0 17.0 0.00 0.47 0.00 42 1017.7
20260901161716 78 331 9.0 17.0 0.00 0.47 0.00 41 1017.8
20260901161215 78 305 9.0 17.0 0.00 0.47 0.00 42 1017.8
20260901160712 78 339 10.0 17.0 0.00 0.47 0.00 41 1017.8
20260901160214 78 340 8.0 16.0 0.00 0.47 0.00 41 1017.8
20260901155707 79 340 8.0 20.0 0.00 0.47 0.00 40 1017.9
20260901155211 79 315 8.0 20.0 0.00 0.47 0.00 41 1017.8
20260901154705 79 313 10.0 20.0 0.00 0.47 0.00 41 1017.8
20260901153712 79 336 12.0 22.0 0.00 0.47 0.00 40 1017.8
20260901153215 79 312 12.0 22.0 0.00 0.47 0.00 40 1017.8
20260901152706 79 329 12.0 19.0 0.00 0.47 0.00 40 1017.8
20260901152209 79 287 10.0 18.0 0.00 0.47 0.00 40 1017.8
20260901151738 79 0 11.0 21.0 0.00 0.47 0.00 41 1017.8
20260901151211 79 330 13.0 22.0 0.00 0.47 0.00 40 1017.8
20260901150240 79 338 11.0 22.0 0.00 0.47 0.00 41 1017.8
20260901145213 79 338 10.0 18.0 0.00 0.47 0.00 41 1017.9
20260901144706 79 311 10.0 17.0 0.00 0.47 0.00 41 1017.9
20260901144234 80 332 10.0 18.0 0.00 0.47 0.00 41 1017.9
20260901143717 80 290 11.0 21.0 0.00 0.47 0.00 41 1017.9
20260901143227 80 319 12.0 21.0 0.00 0.47 0.00 42 1018.0
20260901142706 80 311 12.0 21.0 0.00 0.47 0.00 42 1018.0
20260901141232 80 334 10.0 20.0 0.00 0.47 0.00 43 1018.0
20260901140714 80 339 10.0 19.0 0.00 0.47 0.00 42 1018.1
20260901140246 80 22 10.0 19.0 0.00 0.47 0.00 42 1018.0
20260901135716 80 340 9.0 18.0 0.00 0.47 0.00 42 1018.2
20260901135206 80 329 9.0 20.0 0.00 0.47 0.00 42 1018.2
20260901134713 80 299 10.0 20.0 0.00 0.47 0.00 41 1018.2
20260901134218 80 340 9.0 16.0 0.00 0.47 0.00 42 1018.3
20260901132715 79 333 12.0 19.0 0.00 0.47 0.00 43 1018.4
20260901132213 79 5 12.0 19.0 0.00 0.47 0.00 42 1018.4
20260901131715 79 339 11.0 18.0 0.00 0.47 0.00 42 1018.4
20260901131208 79 342 9.0 18.0 0.00 0.47 0.00 43 1018.5
20260901130716 79 0 9.0 15.0 0.00 0.47 0.00 44 1018.6
20260901130208 79 327 8.0 16.0 0.00 0.47 0.00 43 1018.7
20260901125716 79 331 9.0 16.0 0.00 0.47 0.00 44 1018.7
20260901125208 79 291 10.0 17.0 0.00 0.47 0.00 45 1018.7
20260901124708 79 333 10.0 17.0 0.00 0.47 0.00 45 1018.6
20260901124213 78 308 11.0 17.0 0.00 0.47 0.00 45 1018.7
20260901123704 79 324 10.0 16.0 0.00 0.47 0.00 45 1018.8
20260901122207 78 355 10.0 18.0 0.00 0.47 0.00 45 1018.8
20260901121705 78 329 9.0 17.0 0.00 0.47 0.00 46 1018.9
20260901121205 78 295 10.0 17.0 0.00 0.47 0.00 47 1018.9
20260901115713 78 342 8.0 16.0 0.00 0.47 0.00 47 1018.9
20260901115212 78 349 8.0 16.0 0.00 0.47 0.00 46 1019.0
20260901114708 77 342 8.0 16.0 0.00 0.47 0.00 49 1019.0
20260901114205 77 334 9.0 17.0 0.00 0.47 0.00 47 1019.1
20260901113717 76 328 9.0 17.0 0.00 0.47 0.00 49 1019.2
20260901113212 76 0 9.0 17.0 0.00 0.47 0.00 50 1019.1
20260901112212 75 338 8.0 14.0 0.00 0.47 0.00 51 1019.3
20260901111705 75 12 7.0 17.0 0.00 0.47 0.00 50 1019.2
20260901111209 75 318 9.0 17.0 0.00 0.47 0.00 50 1019.2
20260901110714 75 329 10.0 17.0 0.00 0.47 0.00 50 1019.2
20260901110215 75 351 9.0 19.0 0.00 0.47 0.00 51 1019.3
20260901105713 75 298 10.0 19.0 0.00 0.47 0.00 51 1019.2
20260901105209 75 327 10.0 17.0 0.00 0.47 0.00 50 1019.3
20260901104748 75 331 8.0 16.0 0.00 0.47 0.00 50 1019.3
20260901104211 75 346 7.0 18.0 0.00 0.47 0.00 53 1019.3
20260901103728 75 27 7.0 18.0 0.00 0.47 0.00 52 1019.3
20260901103213 75 325 7.0 18.0 0.00 0.47 0.00 51 1019.3
20260901102708 75 344 7.0 13.0 0.00 0.47 0.00 52 1019.3
20260901102212 75 321 7.0 13.0 0.00 0.47 0.00 52 1019.2
20260901101705 75 355 6.0 13.0 0.00 0.47 0.00 52 1019.3
20260901101215 75 9 6.0 15.0 0.00 0.47 0.00 51 1019.2
20260901100233 75 288 8.0 15.0 0.00 0.47 0.00 51 1019.3
20260901095714 75 346 7.0 15.0 0.00 0.47 0.00 52 1019.3
20260901094707 75 326 7.0 14.0 0.00 0.47 0.00 52 1019.2
20260901094208 75 343 6.0 11.0 0.00 0.47 0.00 55 1019.3
20260901093212 75 300 1.0 8.0 0.00 0.47 0.00 56 1019.5
20260901092716 75 315 2.0 8.0 0.00 0.47 0.00 55 1019.5
20260901092217 75 279 4.0 8.0 0.00 0.47 0.00 58 1019.5
20260901091709 75 267 2.0 9.0 0.00 0.47 0.00 57 1019.5
20260901091205 74 252 3.0 12.0 0.00 0.47 0.00 56 1019.5
20260901090207 74 295 5.0 12.0 0.00 0.47 0.00 60 1019.6
20260901085721 74 174 3.0 13.0 0.00 0.47 0.00 60 1019.5
20260901084717 74 323 7.0 13.0 0.00 0.47 0.00 57 1019.6
20260901084219 74 325 5.0 13.0 0.00 0.47 0.00 59 1019.6
20260901083714 74 319 6.0 13.0 0.00 0.47 0.00 59 1019.6
20260901083211 73 323 6.0 12.0 0.00 0.47 0.00 60 1019.5
20260901082705 73 296 6.0 12.0 0.00 0.47 0.00 61 1019.4
20260901082209 73 319 5.0 12.0 0.00 0.47 0.00 61 1019.5
20260901081219 72 328 4.0 8.0 0.00 0.47 0.00 65 1019.5
20260901080713 72 333 3.0 9.0 0.00 0.47 0.00 66 1019.4
20260901080211 72 44 4.0 9.0 0.00 0.47 0.00 68 1019.5
20260901075710 71 57 4.0 10.0 0.00 0.47 0.00 69 1019.5
20260901074740 71 327 4.0 9.0 0.00 0.47 0.00 69 1019.3
20260901074216 70 5 2.0 7.0 0.00 0.47 0.00 71 1019.3
20260901073713 70 254 3.0 10.0 0.00 0.47 0.00 72 1019.3
20260901072718 69 346 4.0 10.0 0.00 0.47 0.00 73 1019.3
20260901072215 68 265 5.0 10.0 0.00 0.47 0.00 75 1019.2
20260901071708 67 292 5.0 10.0 0.00 0.47 0.00 78 1019.2
20260901071207 67 253 4.0 9.0 0.00 0.47 0.00 79 1019.2
20260901070212 65 232 2.0 4.0 0.00 0.47 0.00 83 1019.1
20260901065213 64 243 2.0 4.0 0.00 0.47 0.00 87 1019.0
20260901064714 64 231 1.0 4.0 0.00 0.47 0.00 90 1019.1
20260901064211 63 127 1.0 5.0 0.00 0.47 0.00 91 1019.0
20260901063705 63 172 2.0 5.0 0.00 0.47 0.00 91 1019.0
20260901063207 62 197 2.0 4.0 0.00 0.47 0.00 92 1018.9
20260901062708 62 227 1.0 3.0 0.00 0.47 0.00 92 1018.9
20260901062207 61 220 2.0 3.0 0.00 0.47 0.00 92 1018.8
20260901061715 61 220 1.0 3.0 0.00 0.47 0.00 93 1018.9
20260901061216 61 185 0.0 2.0 0.00 0.47 0.00 93 1018.8
20260901060715 61 308 0.0 2.0 0.00 0.47 0.00 93 1018.8
20260901060212 61 308 0.0 2.0 0.00 0.47 0.00 93 1018.8
20260901055706 61 308 0.0 3.0 0.00 0.47 0.00 93 1018.8
20260901055212 61 308 1.0 4.0 0.00 0.47 0.00 93 1018.7
20260901054214 60 331 2.0 4.0 0.00 0.47 0.00 93 1018.7
20260901053706 60 273 1.0 3.0 0.00 0.47 0.00 93 1018.7
20260901053211 60 272 1.0 3.0 0.00 0.47 0.00 93 1018.8
20260901052709 60 331 1.0 3.0 0.00 0.47 0.00 93 1018.7
20260901052213 59 304 1.0 3.0 0.00 0.47 0.00 93 1018.7
20260901051215 59 269 2.0 6.0 0.00 0.47 0.00 92 1018.6
20260901050715 59 298 2.0 7.0 0.00 0.47 0.00 92 1018.5
20260901050216 59 261 2.0 8.0 0.00 0.47 0.00 92 1018.5
20260901045708 59 240 4.0 8.0 0.00 0.47 0.00 92 1018.4
20260901044714 59 250 5.0 8.0 0.00 0.47 0.00 92 1018.3
20260901044217 59 259 3.0 7.0 0.00 0.47 0.00 92 1018.2
20260901043711 59 270 3.0 7.0 0.00 0.47 0.00 92 1018.3
20260901043212 59 263 3.0 7.0 0.00 0.47 0.00 92 1018.2
20260901042715 59 248 4.0 6.0 0.00 0.47 0.00 92 1018.1
20260901042205 59 259 3.0 6.0 0.00 0.47 0.00 92 1018.1
20260901041712 59 255 3.0 5.0 0.00 0.47 0.00 92 1018.0
20260901041209 59 263 3.0 5.0 0.00 0.47 0.00 92 1018.0
20260901040717 59 261 3.0 5.0 0.00 0.47 0.00 92 1018.0
20260901040214 60 229 3.0 4.0 0.00 0.47 0.00 92 1018.0
20260901034706 60 260 3.0 5.0 0.00 0.47 0.00 92 1017.9
20260901034224 60 248 3.0 5.0 0.00 0.47 0.00 92 1017.9
20260901033711 60 256 3.0 5.0 0.00 0.47 0.00 92 1017.8
20260901033213 60 236 2.0 3.0 0.00 0.47 0.00 92 1017.8
20260901032707 60 209 1.0 3.0 0.00 0.47 0.00 92 1017.9
20260901032211 60 209 1.0 5.0 0.00 0.47 0.00 92 1017.8
20260901031214 60 219 1.0 5.0 0.00 0.47 0.00 92 1017.8
20260901030705 60 226 1.0 5.0 0.00 0.47 0.00 92 1017.8
20260901030220 60 232 2.0 5.0 0.00 0.47 0.00 92 1017.8
20260901025714 60 242 2.0 5.0 0.00 0.47 0.00 92 1017.7
20260901025214 60 230 3.0 6.0 0.00 0.47 0.00 92 1017.7
20260901024709 60 239 3.0 6.0 0.00 0.47 0.00 92 1017.7
20260901024219 60 239 3.0 6.0 0.00 0.47 0.00 92 1017.7
20260901023717 60 283 3.0 7.0 0.00 0.47 0.00 92 1017.7
20260901023214 60 280 3.0 7.0 0.00 0.47 0.00 92 1017.7
20260901022715 60 271 4.0 8.0 0.00 0.47 0.00 92 1017.6
20260901022212 60 274 4.0 8.0 0.00 0.47 0.00 92 1017.6
20260901021705 60 294 4.0 8.0 0.00 0.47 0.00 92 1017.6
20260901021241 60 304 5.0 8.0 0.00 0.47 0.00 92 1017.4
20260901020711 61 276 5.0 8.0 0.00 0.47 0.00 92 1017.4
20260901020205 61 292 5.0 8.0 0.00 0.47 0.00 92 1017.3
20260901015710 61 318 4.0 8.0 0.00 0.47 0.00 92 1017.3
20260901015210 61 312 3.0 8.0 0.00 0.47 0.00 92 1017.3
20260901014716 61 281 4.0 9.0 0.00 0.47 0.00 92 1017.3
20260901014216 61 292 5.0 10.0 0.00 0.47 0.00 92 1017.3
20260901013709 61 278 6.0 10.0 0.00 0.47 0.00 92 1017.3
20260901013212 61 243 6.0 10.0 0.00 0.47 0.00 92 1017.4
20260901012736 62 232 6.0 9.0 0.00 0.47 0.00 92 1017.3
20260901012211 62 217 6.0 10.0 0.00 0.47 0.00 92 1017.2
20260901011714 62 235 7.0 10.0 0.00 0.47 0.00 92 1017.2
20260901011204 62 234 8.0 14.0 0.00 0.47 0.00 92 1017.1
20260901010707 62 252 9.0 14.0 0.00 0.47 0.00 92 1017.1
20260901010219 62 247 9.0 14.0 0.00 0.47 0.00 92 1017.1
20260901005713 62 227 9.0 12.0 0.00 0.47 0.00 92 1017.1
20260901005219 62 243 8.0 12.0 0.00 0.47 0.00 92 1017.1
20260901004711 62 254 7.0 12.0 0.00 0.47 0.00 92 1017.0
20260901004208 62 236 8.0 12.0 0.00 0.47 0.00 93 1017.1
20260901003719 62 238 8.0 14.0 0.00 0.47 0.00 92 1017.1
20260901003219 62 235 10.0 14.0 0.00 0.47 0.00 92 1017.2
20260901002708 62 252 11.0 14.0 0.00 0.47 0.00 93 1017.2
20260901002213 62 238 9.0 13.0 0.00 0.47 0.00 93 1017.3
20260901001718 62 241 8.0 10.0 0.00 0.47 0.00 93 1017.3
20260901001212 62 244 8.0 11.0 0.00 0.47 0.00 93 1017.3
20260901000709 62 269 9.0 11.0 0.00 0.47 0.00 93 1017.3
20260901000214 62 236 8.0 11.0 0.00 0.47 0.47 93 1017.3
20260831235227 62 242 4.0 7.0 0.00 0.47 0.47 93 1017.3
20260831234213 63 232 5.0 10.0 0.01 0.47 0.47 93 1017.2
20260831233707 63 232 6.0 10.0 0.01 0.47 0.47 92 1017.3
20260831233208 63 232 5.0 9.0 0.02 0.47 0.47 92 1017.4
20260831232719 63 246 4.0 8.0 0.02 0.47 0.47 93 1017.6
20260831232208 63 219 3.0 4.0 0.03 0.47 0.47 93 1017.7
20260831231707 63 229 2.0 4.0 0.04 0.47 0.47 92 1017.7
20260831231210 63 222 2.0 4.0 0.06 0.47 0.47 92 1017.8
20260831230716 63 194 1.0 5.0 0.06 0.47 0.47 92 1017.8
20260831230246 63 180 2.0 6.0 0.07 0.47 0.47 92 1017.8
20260831225711 63 182 3.0 6.0 0.08 0.47 0.47 92 1017.9
20260831224715 63 163 2.0 5.0 0.19 0.47 0.47 92 1018.2
20260831224211 63 144 3.0 5.0 0.20 0.46 0.46 92 1018.3
20260831223714 63 160 3.0 7.0 0.21 0.46 0.46 91 1018.3
20260831222711 63 124 4.0 9.0 0.24 0.45 0.45 91 1018.4
20260831222219 64 116 4.0 9.0 0.24 0.44 0.44 91 1018.7
20260831221717 64 77 4.0 10.0 0.23 0.43 0.43 91 1018.8
20260831221208 64 55 5.0 10.0 0.23 0.42 0.42 91 1019.0
20260831220207 64 344 4.0 14.0 0.24 0.39 0.39 90 1019.2
20260831215705 64 276 6.0 14.0 0.24 0.39 0.39 89 1019.2
20260831215215 64 247 8.0 13.0 0.18 0.33 0.33 89 1019.4
20260831214716 64 266 8.0 13.0 0.13 0.27 0.27 88 1019.2
20260831214219 65 261 8.0 13.0 0.13 0.26 0.26 88 1018.8
20260831213709 65 224 6.0 10.0 0.15 0.24 0.24 88 1018.7
20260831213215 66 210 5.0 10.0 0.17 0.22 0.22 88 1018.5
20260831212719 66 195 4.0 10.0 0.19 0.21 0.21 89 1018.5
20260831211720 66 198 5.0 16.0 0.20 0.19 0.19 88 1018.3
20260831211205 67 192 7.0 13.0 0.18 0.18 0.18 87 1018.4
20260831210706 67 200 7.0 12.0 0.17 0.17 0.17 86 1018.4
20260831210209 67 188 7.0 19.0 0.17 0.17 0.17 85 1018.5
20260831205711 68 162 8.0 21.0 0.16 0.16 0.16 83 1018.3
20260831205208 69 167 9.0 21.0 0.14 0.14 0.14 81 1018.2
20260831204707 70 194 8.0 21.0 0.13 0.13 0.13 77 1018.1
20260831204217 73 216 5.0 12.0 0.12 0.12 0.12 74 1018.2
20260831203211 74 289 3.0 9.0 0.06 0.06 0.03 68 1017.1
20260831202709 75 355 3.0 9.0 0.02 0.02 0.02 67 1016.8
20260831202210 75 305 3.0 9.0 0.01 0.01 0.01 63 1016.6
20260831201713 75 355 1.0 3.0 0.00 0.00 0.00 61 1016.2
20260831201219 75 50 1.0 3.0 0.00 0.00 0.00 57 1015.7
20260831200708 75 92 2.0 3.0 0.00 0.00 0.00 56 1015.4
20260831200207 75 94 1.0 3.0 0.00 0.00 0.00 56 1015.2
20260831195706 75 136 1.0 3.0 0.00 0.00 0.00 56 1015.2
20260831194711 76 109 1.0 3.0 0.00 0.00 0.00 55 1015.0
20260831194208 76 128 1.0 3.0 0.00 0.00 0.00 55 1015.0
20260831193716 76 133 1.0 3.0 0.00 0.00 0.00 55 1014.9
20260831193210 76 126 1.0 2.0 0.00 0.00 0.00 55 1014.8